EW6034 Weather Reports


Display with metric or nautical units.
time (UTC)temp
F
wind
direction
speed
MPH
gust
MPH
rain 1hr
in
rain 24hr
in
rain mn
in
humidity
%
barometer
mb
20260506013751 0 248 2.0 2.0 0.00 0.00 0.00
20260506011855 80 143 3.0 4.0 0.00 0.00 0.00 82 1005.0
20260506005233 0 167 2.0 2.0 0.00 0.00 0.00
20260506002924 80 186 4.0 5.0 0.00 0.00 0.00 80 1004.7
20260505224004 0 264 1.0 1.0 0.00 0.00 0.00
20260505203502 0 168 2.0 0.0 0.00 0.00 0.00
20260505202757 83 256 2.0 5.0 0.00 0.00 0.00 76 1006.0
20260505202155 0 264 2.0 2.0 0.00 0.00 0.00
20260505192142 0 168 3.0 3.0 0.00 0.00 0.00
20260505172511 0 0.0 0.0 0.00 0.00 0.00
20260505153139 0 242 0.0 0.0 0.00 0.00 0.00
20260505110740 0 240 0.0 0.0 0.00 0.00 0.00
20260505092638 0 207 1.0 1.0 0.00 0.00 0.00
20260505075715 0 209 0.0 2.0 0.00 0.00 0.00
20260505075214 0 0 0.0 0.0 0.00 0.00 0.00
20260505065757 0 155 3.0 3.0 0.00 0.00 0.00
20260505064838 0 232 0.0 0.0 0.00 0.00 0.00
20260505052448 71 233 1.0 2.0 0.00 0.00 0.00 84 1008.4
20260505051239 0 185 1.0 1.0 0.00 0.00 0.00
20260505050409 72 185 1.0 2.0 0.00 0.00 0.00 82 1008.5